• In Hungary
  • List of Countries
  • For 7 days
  • Water Temperature
  • Satellite Maps
  • Weather Map
  • News
  • Weather Widgets
  • user-avatar
    Login

    Hourly Weather Kendari

    Today, 20 September, Wednesday

    Time Temperature Precipitation Wind Pressure Humidity
    00:00 +25°C° 0 mm 2 mps 747 mmHg 83%
    01:00 +25°C° 0 mm 1 mps 747 mmHg 84%
    02:00 +25°C° 0 mm 1 mps 746 mmHg 84%
    03:00 +24°C° 0 mm 1 mps 746 mmHg 84%
    04:00 +24°C° 0 mm 2 mps 746 mmHg 85%
    05:00 +24°C° 0 mm 2 mps 746 mmHg 85%
    06:00 +26°C° 0 mm 2 mps 746 mmHg 80%
    07:00 +27°C° 0 mm 2 mps 747 mmHg 75%
    08:00 +29°C° 0 mm 2 mps 747 mmHg 71%
    09:00 +29°C° 0.2 mm 2 mps 747 mmHg 69%
    10:00 +30°C° 0.2 mm 2 mps 747 mmHg 67%
    11:00 +31°C° 0.2 mm 2 mps 746 mmHg 66%
    12:00 +31°C° 0.8 mm 2 mps 746 mmHg 70%
    13:00 +30°C° 0.8 mm 2 mps 745 mmHg 73%
    14:00 +30°C° 0 mm 2 mps 745 mmHg 77%
    15:00 +30°C° 1.4 mm 2 mps 745 mmHg 80%
    16:00 +29°C° 1.4 mm 2 mps 745 mmHg 84%
    17:00 +28°C° 1.4 mm 2 mps 745 mmHg 87%
    18:00 +27°C° 1.3 mm 2 mps 745 mmHg 88%
    19:00 +27°C° 1.3 mm 2 mps 745 mmHg 89%
    20:00 +26°C° 1.3 mm 2 mps 746 mmHg 90%
    21:00 +26°C° 1 mm 2 mps 746 mmHg 91%
    22:00 +26°C° 1 mm 2 mps 746 mmHg 91%
    23:00 +26°C° 1 mm 2 mps 746 mmHg 92%

    Tomorrow, 21 September, Thursday

    Time Temperature Precipitation Wind Pressure Humidity
    00:00 +26°C° 1.4 mm 2 mps 746 mmHg 92%
    01:00 +26°C° 1.4 mm 2 mps 745 mmHg 92%
    02:00 +26°C° 1.4 mm 2 mps 745 mmHg 93%
    03:00 +26°C° 1.2 mm 2 mps 745 mmHg 92%
    04:00 +25°C° 1.2 mm 2 mps 745 mmHg 92%
    05:00 +25°C° 1.2 mm 2 mps 745 mmHg 92%
    06:00 +26°C° 1 mm 2 mps 746 mmHg 90%
    07:00 +27°C° 1 mm 2 mps 746 mmHg 89%
    08:00 +27°C° 1 mm 2 mps 746 mmHg 87%
    09:00 +27°C° 1.1 mm 2 mps 746 mmHg 88%
    10:00 +27°C° 1.1 mm 2 mps 746 mmHg 88%
    11:00 +27°C° 1.1 mm 2 mps 746 mmHg 89%
    12:00 +27°C° 1.2 mm 2 mps 746 mmHg 89%
    13:00 +27°C° 1.2 mm 2 mps 745 mmHg 89%
    14:00 +27°C° 1.2 mm 2 mps 745 mmHg 90%
    15:00 +27°C° 1.6 mm 2 mps 745 mmHg 91%
    16:00 +26°C° 1.6 mm 2 mps 745 mmHg 92%
    17:00 +26°C° 1.6 mm 2 mps 745 mmHg 93%
    18:00 +26°C° 1 mm 2 mps 745 mmHg 94%
    19:00 +26°C° 1 mm 2 mps 746 mmHg 94%
    20:00 +25°C° 1 mm 2 mps 746 mmHg 95%
    21:00 +25°C° 0.7 mm 2 mps 746 mmHg 95%
    22:00 +25°C° 0.7 mm 2 mps 746 mmHg 95%
    23:00 +25°C° 0.7 mm 2 mps 746 mmHg 96%

    Day after tomorrow, 22 September, Friday

    Time Temperature Precipitation Wind Pressure Humidity
    00:00 +25°C° 1 mm 2 mps 746 mmHg 95%
    01:00 +25°C° 1 mm 2 mps 746 mmHg 95%
    02:00 +25°C° 1 mm 2 mps 745 mmHg 95%
    03:00 +25°C° 1.4 mm 2 mps 745 mmHg 95%
    04:00 +25°C° 1.4 mm 2 mps 745 mmHg 95%
    05:00 +25°C° 1.4 mm 2 mps 745 mmHg 95%
    06:00 +25°C° 1.2 mm 2 mps 746 mmHg 94%
    07:00 +26°C° 1.2 mm 2 mps 746 mmHg 94%
    08:00 +26°C° 1.2 mm 2 mps 747 mmHg 94%
    09:00 +26°C° 1.9 mm 2 mps 747 mmHg 94%
    10:00 +26°C° 1.9 mm 2 mps 747 mmHg 94%
    11:00 +26°C° 1.9 mm 2 mps 747 mmHg 94%
    12:00 +26°C° 2 mm 1 mps 746 mmHg 94%
    13:00 +26°C° 2 mm 1 mps 746 mmHg 94%
    14:00 +26°C° 2 mm 1 mps 745 mmHg 94%
    15:00 +26°C° 1.3 mm 1 mps 745 mmHg 93%
    16:00 +26°C° 1.3 mm 1 mps 745 mmHg 93%
    17:00 +26°C° 1.3 mm 1 mps 745 mmHg 92%
    18:00 +26°C° 0.6 mm 1 mps 746 mmHg 92%
    19:00 +25°C° 0.6 mm 1 mps 746 mmHg 93%
    20:00 +25°C° 0.6 mm 1 mps 747 mmHg 93%
    21:00 +25°C° 0.1 mm 1 mps 747 mmHg 93%
    22:00 +25°C° 0.1 mm 1 mps 747 mmHg 93%
    23:00 +25°C° 0.1 mm 1 mps 747 mmHg 93%

    23 September, Saturday

    Time Temperature Precipitation Wind Pressure Humidity
    00:00 +25°C° 0.1 mm 1 mps 747 mmHg 93%
    01:00 +25°C° 0.1 mm 1 mps 746 mmHg 94%
    02:00 +25°C° 0.1 mm 1 mps 746 mmHg 94%
    03:00 +25°C° 0.1 mm 1 mps 746 mmHg 94%
    04:00 +25°C° 0.1 mm 1 mps 746 mmHg 93%
    05:00 +25°C° 0.1 mm 1 mps 746 mmHg 93%
    06:00 +25°C° 0.1 mm 1 mps 746 mmHg 91%
    07:00 +26°C° 0.1 mm 1 mps 747 mmHg 89%
    08:00 +27°C° 0.1 mm 1 mps 747 mmHg 87%
    09:00 +28°C° 0.8 mm 1 mps 747 mmHg 82%
    10:00 +29°C° 0.8 mm 1 mps 747 mmHg 77%
    11:00 +31°C° 0.8 mm 1 mps 747 mmHg 72%
    12:00 +31°C° 0.8 mm 1 mps 746 mmHg 72%
    13:00 +31°C° 0.8 mm 1 mps 746 mmHg 72%
    14:00 +31°C° 0.8 mm 1 mps 745 mmHg 72%
    15:00 +30°C° 0.7 mm 1 mps 745 mmHg 74%
    16:00 +29°C° 0.7 mm 2 mps 745 mmHg 76%
    17:00 +29°C° 0.7 mm 2 mps 745 mmHg 79%
    18:00 +28°C° 0.3 mm 1 mps 745 mmHg 82%
    19:00 +27°C° 0.3 mm 1 mps 746 mmHg 84%
    20:00 +26°C° 0.3 mm 1 mps 746 mmHg 87%
    21:00 +26°C° 0.3 mm 1 mps 747 mmHg 88%
    22:00 +26°C° 0.3 mm 1 mps 747 mmHg 88%
    23:00 +26°C° 0.3 mm 1 mps 747 mmHg 89%

    24 September, Sunday

    Time Temperature Precipitation Wind Pressure Humidity
    00:00 +25°C° 0.3 mm 1 mps 746 mmHg 89%
    01:00 +25°C° 0.3 mm 1 mps 746 mmHg 90%
    02:00 +25°C° 0.3 mm 1 mps 745 mmHg 90%
    03:00 +25°C° 0.1 mm 1 mps 746 mmHg 90%
    04:00 +25°C° 0.1 mm 1 mps 746 mmHg 90%
    05:00 +25°C° 0.1 mm 1 mps 746 mmHg 90%
    06:00 +26°C° 0 mm 1 mps 746 mmHg 85%
    07:00 +27°C° 0 mm 1 mps 747 mmHg 81%
    08:00 +29°C° 0 mm 1 mps 747 mmHg 76%
    09:00 +30°C° 0 mm 1 mps 747 mmHg 70%
    10:00 +31°C° 0 mm 1 mps 747 mmHg 64%
    11:00 +32°C° 0 mm 2 mps 747 mmHg 58%
    12:00 +32°C° 0 mm 2 mps 746 mmHg 57%
    13:00 +32°C° 0 mm 2 mps 745 mmHg 57%
    14:00 +34°C° 0 mm 2 mps 744 mmHg 56%
    15:00 +32°C° 0.1 mm 2 mps 744 mmHg 61%
    16:00 +31°C° 0.1 mm 2 mps 744 mmHg 66%
    17:00 +30°C° 0.1 mm 2 mps 744 mmHg 70%
    18:00 +29°C° 0.1 mm 2 mps 745 mmHg 75%
    19:00 +28°C° 0.1 mm 2 mps 745 mmHg 79%
    20:00 +27°C° 0.1 mm 1 mps 746 mmHg 84%
    21:00 +27°C° 0.1 mm 1 mps 746 mmHg 84%
    22:00 +26°C° 0.1 mm 1 mps 746 mmHg 84%
    23:00 +26°C° 0.1 mm 1 mps 746 mmHg 85%

    25 September, Monday

    Time Temperature Precipitation Wind Pressure Humidity
    00:00 +26°C° 0.6 mm 1 mps 746 mmHg 86%
    01:00 +24°C° 0.6 mm 0 mps 745 mmHg 88%
    02:00 +24°C° 0.6 mm 0 mps 745 mmHg 89%
    03:00 +26°C° 0.4 mm 1 mps 745 mmHg 89%
    04:00 +25°C° 0.4 mm 1 mps 745 mmHg 89%
    05:00 +25°C° 0.4 mm 1 mps 745 mmHg 89%
    06:00 +26°C° 0.1 mm 1 mps 746 mmHg 86%
    07:00 +28°C° 0.1 mm 1 mps 746 mmHg 82%
    08:00 +29°C° 0.1 mm 1 mps 747 mmHg 78%
    09:00 +30°C° 0.1 mm 1 mps 746 mmHg 72%
    10:00 +31°C° 0.1 mm 1 mps 746 mmHg 65%
    11:00 +32°C° 0.1 mm 1 mps 746 mmHg 59%
    12:00 +32°C° 0.1 mm 2 mps 745 mmHg 61%
    13:00 +32°C° 0.1 mm 2 mps 744 mmHg 64%
    14:00 +33°C° 0.1 mm 3 mps 744 mmHg 66%
    15:00 +31°C° 0.4 mm 2 mps 744 mmHg 71%
    16:00 +30°C° 0.4 mm 2 mps 744 mmHg 75%
    17:00 +29°C° 0.4 mm 2 mps 744 mmHg 80%
    18:00 +28°C° 0 mm 2 mps 745 mmHg 82%
    19:00 +28°C° 0 mm 2 mps 745 mmHg 84%
    20:00 +27°C° 0 mm 1 mps 746 mmHg 86%
    21:00 +27°C° 0 mm 1 mps 746 mmHg 86%
    22:00 +27°C° 0 mm 1 mps 746 mmHg 87%
    23:00 +27°C° 0 mm 1 mps 746 mmHg 87%
    Show more